{"data":{"norad_id":47157,"epoch":"2026-09-20T03:46:30.483264Z","epoch_age_seconds":51541,"freshness":"FRESH","line1":"1 47157U 20088AM  26263.15729726  .00032703  00000+0  67513-3 0  9999","line2":"2 47157  53.1519 103.7950 0001345 150.7168 209.3915 15.45585049321827","mean_motion":15.45585049,"eccentricity":0.0001345,"inclination_deg":53.1519,"raan_deg":103.795,"arg_perigee_deg":150.7168,"mean_anomaly_deg":209.3915,"bstar":0.00067513,"rev_number":32182,"period_min":93.168603108039,"perigee_km":428.7439150926,"apogee_km":430.57521236824,"semimajor_km":6807.7965637304,"source":"CELESTRAK","updated_at":"2026-09-20T09:00:38.587902Z"}}